NOAA 15 (25338 NORAD) Tracking and Keplerian Element Data

This shows tracking and keplerian element data for the satellite.

Feedback or suggestion? Click here.




ElementValue
Catalog25338
NameNOAA 15
Epoch Orbit16714
Epoch Day295.17292359
Epoch Year2020
RAAN319.5329
Inclination98.7085
Eccentricity0.0009371
Argument of Perigee255.4938
Mean Anonmoly104.5203
Mean Motion14.25994653
Decay Rate2.6E-07
L11 25338U 98030A 20295.17292359 .00000026 00000-0 29394-4 0 9996
L22 25338 98.7085 319.5329 0009371 255.4938 104.5203 14.25994653167140

Live tracking and technical data element details for NOAA 15 (NORAD 25338). NOAA 15 can be tracked NOW for your location showing map with azimuth and elevation plus other details from your city location.

Track the satellite on the map from your city or location and see movement details for azimuth, elevation, latitude, longitude, range, height, and movement on the map or in text.







IsCatalogInMostPopularTable: catalog: 25338, numindb: 464
Update: records affected: 1



GetName: 25338 NOAA 15

Hit Count: updated at: Thu, 22 Oct 2020 03:15:36 GMT